N23WS KOWB-KXNA

Flight info

Callsign N23WS
Flight time N/A
Altitude 22000
Route BLANS BSIDE HRO VLUST RZC
Aircraft PC12/L-SDFGRWY/S

Departure

Time 2026-05-08 01:14
Airport Owensboro Daviess County Airport (KOWB)

Arrival

Time N/A
Airport Northwest Arkansas National Airport (KXNA)
Time Latitude Longitude Altitude Speed Heading
2026-05-08 01:02 37.73708 -87.16402 400 ft 0 kts 90°
2026-05-08 01:10 37.73710 -87.16391 400 ft 6 kts 52°
2026-05-08 01:11 37.73780 -87.16397 401 ft 11 kts 298°
2026-05-08 01:11 37.73780 -87.16491 401 ft 10 kts 268°
2026-05-08 01:11 37.73817 -87.16547 401 ft 10 kts
2026-05-08 01:11 37.73898 -87.16548 401 ft 12 kts 358°
2026-05-08 01:12 37.73985 -87.16550 402 ft 11 kts 18°
2026-05-08 01:12 37.74039 -87.16468 402 ft 14 kts 52°
2026-05-08 01:12 37.74106 -87.16360 402 ft 16 kts 51°
2026-05-08 01:12 37.74182 -87.16238 403 ft 18 kts 52°
2026-05-08 01:13 37.74261 -87.16110 403 ft 19 kts 52°
2026-05-08 01:13 37.74344 -87.15975 403 ft 19 kts 53°
2026-05-08 01:13 37.74409 -87.15901 403 ft 7 kts 332°
2026-05-08 01:13 37.74431 -87.15930 403 ft 6 kts 307°
2026-05-08 01:14 37.74384 -87.16047 403 ft 43 kts 232°
2026-05-08 01:14 37.74045 -87.16594 465 ft 101 kts 233°
2026-05-08 01:14 37.73666 -87.17370 828 ft 111 kts 249°
2026-05-08 01:14 37.73482 -87.18323 1310 ft 113 kts 260°
2026-05-08 01:15 37.73380 -87.19378 1668 ft 130 kts 262°
2026-05-08 01:15 37.73241 -87.20557 2075 ft 142 kts 258°
2026-05-08 01:15 37.73031 -87.21800 2515 ft 150 kts 257°
2026-05-08 01:15 37.72812 -87.23078 3062 ft 151 kts 259°
2026-05-08 01:16 37.72604 -87.24370 3578 ft 153 kts 259°
2026-05-08 01:16 37.72393 -87.25667 4160 ft 150 kts 260°
2026-05-08 01:16 37.72181 -87.26960 4690 ft 151 kts 260°
2026-05-08 01:16 37.71970 -87.28242 5215 ft 152 kts 261°
2026-05-08 01:17 37.71753 -87.29552 5766 ft 153 kts 262°
2026-05-08 01:17 37.71539 -87.30842 6347 ft 152 kts 262°
2026-05-08 01:17 37.71323 -87.32145 6921 ft 152 kts 263°
2026-05-08 01:17 37.71111 -87.33419 7469 ft 151 kts 264°
2026-05-08 01:18 37.70895 -87.34722 7967 ft 152 kts 264°
2026-05-08 01:18 37.70680 -87.36011 8481 ft 152 kts 264°
2026-05-08 01:18 37.70463 -87.37319 8975 ft 153 kts 264°
2026-05-08 01:18 37.70246 -87.38615 9540 ft 151 kts 265°
2026-05-08 01:19 37.70031 -87.39909 10021 ft 152 kts 265°
2026-05-08 01:19 37.69814 -87.41200 10504 ft 150 kts 265°
2026-05-08 01:19 37.69601 -87.42478 10908 ft 151 kts 265°
2026-05-08 01:19 37.69386 -87.43758 11372 ft 150 kts 265°
2026-05-08 01:20 37.69174 -87.45023 11842 ft 148 kts 265°
2026-05-08 01:20 37.68959 -87.46312 12266 ft 149 kts 265°
2026-05-08 01:20 37.68749 -87.47566 12692 ft 149 kts 265°
2026-05-08 01:20 37.68534 -87.48850 13056 ft 150 kts 265°
2026-05-08 01:21 37.68319 -87.50127 13464 ft 148 kts 264°
2026-05-08 01:21 37.68109 -87.51379 13821 ft 148 kts 264°
2026-05-08 01:21 37.67898 -87.52631 14221 ft 146 kts 265°
2026-05-08 01:21 37.67684 -87.53906 14551 ft 149 kts 265°
2026-05-08 01:22 37.67471 -87.55172 14926 ft 148 kts 265°
2026-05-08 01:22 37.67259 -87.56426 15333 ft 146 kts 265°
2026-05-08 01:22 37.67045 -87.57700 15636 ft 149 kts 265°
2026-05-08 01:22 37.66831 -87.58965 15999 ft 147 kts 265°
2026-05-08 01:23 37.66619 -87.60223 16307 ft 147 kts 264°
2026-05-08 01:23 37.66407 -87.61480 16621 ft 147 kts 265°
2026-05-08 01:23 37.66192 -87.62754 16921 ft 147 kts 264°
2026-05-08 01:23 37.65979 -87.64009 17170 ft 148 kts 265°
2026-05-08 01:24 37.65765 -87.65269 17528 ft 145 kts 264°
2026-05-08 01:24 37.65556 -87.66506 17806 ft 146 kts 264°
2026-05-08 01:24 37.65340 -87.67788 18060 ft 148 kts 263°
2026-05-08 01:24 37.65125 -87.69055 18336 ft 148 kts 264°
2026-05-08 01:25 37.64910 -87.70316 18632 ft 147 kts 263°
2026-05-08 01:25 37.64697 -87.71570 18885 ft 147 kts 264°
2026-05-08 01:25 37.64486 -87.72808 19169 ft 145 kts 264°
2026-05-08 01:25 37.64272 -87.74071 19357 ft 148 kts 265°
2026-05-08 01:26 37.64057 -87.75335 19647 ft 146 kts 264°
2026-05-08 01:26 37.63844 -87.76582 19891 ft 146 kts 265°
2026-05-08 01:26 37.63632 -87.77833 20072 ft 148 kts 264°
2026-05-08 01:26 37.63416 -87.79092 20351 ft 145 kts 265°
2026-05-08 01:27 37.63202 -87.80349 20535 ft 147 kts 264°
2026-05-08 01:27 37.62987 -87.81610 20756 ft 147 kts 265°
2026-05-08 01:27 37.62773 -87.82859 20980 ft 146 kts 264°
2026-05-08 01:27 37.62558 -87.84117 21172 ft 147 kts 264°
2026-05-08 01:28 37.62344 -87.85366 21400 ft 145 kts 265°
2026-05-08 01:28 37.62131 -87.86611 21609 ft 144 kts 265°
2026-05-08 01:28 37.61922 -87.87833 21787 ft 145 kts 265°
2026-05-08 01:28 37.61707 -87.89085 21940 ft 146 kts 265°
2026-05-08 01:29 37.61491 -87.90353 22041 ft 150 kts 264°
2026-05-08 01:29 37.61266 -87.91672 22048 ft 157 kts 264°
2026-05-08 01:29 37.61031 -87.93050 22051 ft 164 kts 263°
2026-05-08 01:29 37.60786 -87.94478 22049 ft 169 kts 263°
2026-05-08 01:30 37.60535 -87.95932 22046 ft 173 kts 264°
2026-05-08 01:30 37.60277 -87.97422 22047 ft 175 kts 264°
2026-05-08 01:30 37.60015 -87.98937 22045 ft 178 kts 264°
2026-05-08 01:30 37.59752 -88.00460 22046 ft 179 kts 264°
2026-05-08 01:31 37.59483 -88.02016 22045 ft 181 kts 264°
2026-05-08 01:31 37.59217 -88.03554 22043 ft 182 kts 264°
2026-05-08 01:31 37.58945 -88.05125 22037 ft 183 kts 263°
2026-05-08 01:31 37.58673 -88.06691 22034 ft 183 kts 264°
2026-05-08 01:32 37.58404 -88.08247 22036 ft 183 kts 264°
2026-05-08 01:32 37.58128 -88.09837 22034 ft 184 kts 264°
2026-05-08 01:32 37.57857 -88.11401 22033 ft 185 kts 264°
2026-05-08 01:32 37.57583 -88.12975 22031 ft 185 kts 263°
2026-05-08 01:33 37.57306 -88.14574 22030 ft 185 kts 263°
2026-05-08 01:33 37.57030 -88.16156 22029 ft 185 kts 263°
2026-05-08 01:33 37.56756 -88.17730 22030 ft 185 kts 263°
2026-05-08 01:33 37.56478 -88.19327 22030 ft 185 kts 263°
2026-05-08 01:34 37.56203 -88.20903 22029 ft 186 kts 264°
2026-05-08 01:34 37.55925 -88.22493 22027 ft 186 kts 264°
2026-05-08 01:34 37.55649 -88.24074 22026 ft 186 kts 263°
2026-05-08 01:34 37.55369 -88.25674 22028 ft 185 kts 263°
2026-05-08 01:35 37.55093 -88.27252 22029 ft 185 kts 263°
2026-05-08 01:35 37.54816 -88.28834 22031 ft 185 kts 264°
2026-05-08 01:35 37.54536 -88.30431 22032 ft 185 kts 263°
2026-05-08 01:35 37.54259 -88.32008 22031 ft 185 kts 263°
2026-05-08 01:36 37.53981 -88.33594 22030 ft 185 kts 264°
2026-05-08 01:36 37.53703 -88.35177 22030 ft 185 kts 264°
2026-05-08 01:36 37.53423 -88.36770 22029 ft 186 kts 263°
2026-05-08 01:36 37.53146 -88.38345 22028 ft 186 kts 263°
2026-05-08 01:37 37.52864 -88.39941 22026 ft 186 kts 264°
2026-05-08 01:37 37.52587 -88.41509 22028 ft 185 kts 263°
2026-05-08 01:37 37.52306 -88.43111 22027 ft 186 kts 263°
2026-05-08 01:37 37.52027 -88.44689 22030 ft 186 kts 263°
2026-05-08 01:38 37.51745 -88.46282 22027 ft 186 kts 263°
2026-05-08 01:38 37.51463 -88.47880 22024 ft 186 kts 263°
2026-05-08 01:38 37.51181 -88.49468 22024 ft 186 kts 264°
2026-05-08 01:38 37.50901 -88.51051 22031 ft 186 kts 263°
2026-05-08 01:39 37.50622 -88.52623 22030 ft 186 kts 263°
2026-05-08 01:39 37.50337 -88.54230 22029 ft 186 kts 263°
2026-05-08 01:39 37.50057 -88.55802 22027 ft 186 kts 264°
2026-05-08 01:39 37.49773 -88.57400 22029 ft 186 kts 264°
2026-05-08 01:40 37.49489 -88.58998 22023 ft 187 kts 263°
2026-05-08 01:40 37.49205 -88.60589 22024 ft 186 kts 264°
2026-05-08 01:40 37.48923 -88.62176 22025 ft 186 kts 263°
2026-05-08 01:40 37.48637 -88.63776 22025 ft 186 kts 263°
2026-05-08 01:41 37.48356 -88.65354 22028 ft 186 kts 263°
2026-05-08 01:41 37.48067 -88.66969 22041 ft 187 kts 263°
2026-05-08 01:41 37.47783 -88.68556 22044 ft 187 kts 263°
2026-05-08 01:41 37.47498 -88.70151 22041 ft 188 kts 263°
2026-05-08 01:42 37.47207 -88.71778 22041 ft 189 kts 263°
2026-05-08 01:42 37.46919 -88.73383 22042 ft 189 kts 262°
2026-05-08 01:42 37.46601 -88.75002 22043 ft 190 kts 261°
2026-05-08 01:42 37.46245 -88.76597 22041 ft 191 kts 260°
2026-05-08 01:43 37.45879 -88.78205 22038 ft 191 kts 261°
2026-05-08 01:43 37.45515 -88.79821 22038 ft 191 kts 260°
2026-05-08 01:43 37.45153 -88.81435 22036 ft 191 kts 260°
2026-05-08 01:43 37.44794 -88.83041 22037 ft 191 kts 260°
2026-05-08 01:44 37.44434 -88.84655 22038 ft 191 kts 261°
2026-05-08 01:44 37.44078 -88.86263 22041 ft 191 kts 261°
2026-05-08 01:44 37.43720 -88.87869 22044 ft 191 kts 261°
2026-05-08 01:44 37.43365 -88.89469 22040 ft 191 kts 260°
2026-05-08 01:45 37.43012 -88.91061 22042 ft 191 kts 261°
2026-05-08 01:45 37.42655 -88.92670 22038 ft 191 kts 261°
2026-05-08 01:45 37.42295 -88.94290 22033 ft 191 kts 261°
2026-05-08 01:45 37.41939 -88.95893 22033 ft 191 kts 261°
2026-05-08 01:46 37.41584 -88.97485 22038 ft 190 kts 260°
2026-05-08 01:46 37.41226 -88.99096 22035 ft 191 kts 261°
2026-05-08 01:46 37.40871 -89.00687 22038 ft 190 kts 261°
2026-05-08 01:46 37.40513 -89.02293 22036 ft 191 kts 261°
2026-05-08 01:47 37.40153 -89.03909 22035 ft 190 kts 261°
2026-05-08 01:47 37.39797 -89.05505 22034 ft 190 kts 261°
2026-05-08 01:47 37.39443 -89.07089 22033 ft 190 kts 261°
2026-05-08 01:48 37.38725 -89.10305 22036 ft 191 kts 261°
2026-05-08 01:48 37.38364 -89.11920 22031 ft 191 kts 260°
2026-05-08 01:48 37.38005 -89.13519 22031 ft 191 kts 261°
2026-05-08 01:48 37.37645 -89.15126 22034 ft 191 kts 260°
2026-05-08 01:49 37.37286 -89.16727 22037 ft 191 kts 261°
2026-05-08 01:49 37.36928 -89.18322 22033 ft 192 kts 261°
2026-05-08 01:49 37.36566 -89.19932 22032 ft 192 kts 261°
2026-05-08 01:49 37.36202 -89.21554 22030 ft 192 kts 261°
2026-05-08 01:50 37.35841 -89.23158 22032 ft 191 kts 260°
2026-05-08 01:50 37.35477 -89.24777 22036 ft 192 kts 261°
2026-05-08 01:50 37.35119 -89.26367 22030 ft 192 kts 260°
2026-05-08 01:50 37.34752 -89.27997 22029 ft 192 kts 261°
2026-05-08 01:51 37.34392 -89.29587 22031 ft 191 kts 260°
2026-05-08 01:51 37.34029 -89.31199 22031 ft 191 kts 261°
2026-05-08 01:51 37.33667 -89.32803 22034 ft 191 kts 261°
2026-05-08 01:51 37.33304 -89.34408 22030 ft 192 kts 261°
2026-05-08 01:52 37.32936 -89.36036 22029 ft 192 kts 261°
2026-05-08 01:52 37.32571 -89.37648 22031 ft 193 kts 261°
2026-05-08 01:52 37.32202 -89.39275 22030 ft 193 kts 260°
2026-05-08 01:52 37.31835 -89.40897 22032 ft 193 kts 261°
2026-05-08 01:53 37.31468 -89.42517 22029 ft 193 kts 261°
2026-05-08 01:53 37.31099 -89.44141 22030 ft 193 kts 261°
2026-05-08 01:53 37.30733 -89.45757 22031 ft 193 kts 260°
2026-05-08 01:53 37.30367 -89.47365 22031 ft 193 kts 261°
2026-05-08 01:54 37.29997 -89.48988 22027 ft 193 kts 261°
2026-05-08 01:54 37.29629 -89.50608 22023 ft 193 kts 260°
2026-05-08 01:54 37.29260 -89.52228 22023 ft 192 kts 260°
2026-05-08 01:54 37.28891 -89.53850 22028 ft 192 kts 261°
2026-05-08 01:55 37.28523 -89.55461 22031 ft 192 kts 261°
2026-05-08 01:55 37.28155 -89.57072 22032 ft 192 kts 261°
2026-05-08 01:55 37.27786 -89.58688 22026 ft 192 kts 260°
2026-05-08 01:55 37.27416 -89.60311 22028 ft 192 kts 260°
2026-05-08 01:56 37.27048 -89.61917 22027 ft 192 kts 261°
2026-05-08 01:56 37.26678 -89.63531 22030 ft 192 kts 260°
2026-05-08 01:56 37.26314 -89.65124 22027 ft 192 kts 260°
2026-05-08 01:56 37.25942 -89.66748 22043 ft 192 kts 260°
2026-05-08 01:57 37.25571 -89.68366 22040 ft 193 kts 260°
2026-05-08 01:57 37.25198 -89.69994 22040 ft 194 kts 260°
2026-05-08 01:57 37.24824 -89.71618 22043 ft 194 kts 261°
2026-05-08 01:57 37.24450 -89.73247 22038 ft 195 kts 261°
2026-05-08 01:58 37.24075 -89.74880 22033 ft 195 kts 260°
2026-05-08 01:58 37.23700 -89.76507 22033 ft 195 kts 261°
2026-05-08 01:58 37.23325 -89.78138 22040 ft 195 kts 260°
2026-05-08 01:58 37.22948 -89.79774 22037 ft 195 kts 260°
2026-05-08 01:59 37.22570 -89.81411 22037 ft 195 kts 260°
2026-05-08 01:59 37.22193 -89.83044 22031 ft 195 kts 261°
2026-05-08 01:59 37.21815 -89.84682 22029 ft 195 kts 260°
2026-05-08 01:59 37.21440 -89.86304 22026 ft 195 kts 261°
2026-05-08 02:00 37.21061 -89.87942 22031 ft 195 kts 261°
2026-05-08 02:00 37.20684 -89.89570 22025 ft 195 kts 261°
2026-05-08 02:00 37.20307 -89.91199 22026 ft 195 kts 260°
2026-05-08 02:00 37.19931 -89.92824 22031 ft 195 kts 259°
2026-05-08 02:01 37.19550 -89.94469 22024 ft 196 kts 259°
2026-05-08 02:01 37.19173 -89.96091 22026 ft 195 kts 260°
2026-05-08 02:01 37.18795 -89.97720 22026 ft 195 kts 260°
2026-05-08 02:01 37.18410 -89.99373 22027 ft 195 kts 260°
2026-05-08 02:02 37.18030 -90.01008 22027 ft 195 kts 259°
2026-05-08 02:02 37.17650 -90.02644 22029 ft 195 kts 260°
2026-05-08 02:02 37.17272 -90.04265 22029 ft 196 kts 260°
2026-05-08 02:02 37.16891 -90.05903 22027 ft 196 kts 260°
2026-05-08 02:03 37.16509 -90.07539 22025 ft 196 kts 261°
2026-05-08 02:03 37.16122 -90.09197 22027 ft 196 kts 259°
2026-05-08 02:03 37.15742 -90.10824 22021 ft 195 kts 260°
2026-05-08 02:03 37.15361 -90.12457 22025 ft 195 kts 260°
2026-05-08 02:04 37.14978 -90.14092 22031 ft 195 kts 260°
2026-05-08 02:04 37.14593 -90.15742 22028 ft 196 kts 260°
2026-05-08 02:04 37.14211 -90.17373 22022 ft 196 kts 260°
2026-05-08 02:04 37.13830 -90.18998 22025 ft 196 kts 260°
2026-05-08 02:05 37.13441 -90.20655 22024 ft 196 kts 259°
2026-05-08 02:05 37.13061 -90.22276 22024 ft 196 kts 260°
2026-05-08 02:05 37.12674 -90.23923 22021 ft 196 kts 260°
2026-05-08 02:05 37.12290 -90.25557 22023 ft 196 kts 260°
2026-05-08 02:06 37.11905 -90.27194 22021 ft 196 kts 259°
2026-05-08 02:06 37.11519 -90.28835 22014 ft 196 kts 260°
2026-05-08 02:06 37.11134 -90.30468 22021 ft 195 kts 260°
2026-05-08 02:06 37.10755 -90.32074 22023 ft 195 kts 260°
2026-05-08 02:07 37.10366 -90.33727 22023 ft 195 kts 259°
2026-05-08 02:07 37.09985 -90.35347 22021 ft 195 kts 259°
2026-05-08 02:07 37.09601 -90.36970 22021 ft 195 kts 261°
2026-05-08 02:07 37.09215 -90.38603 22019 ft 195 kts 260°
2026-05-08 02:08 37.08829 -90.40235 22024 ft 195 kts 260°
2026-05-08 02:08 37.08446 -90.41854 22021 ft 195 kts 259°
2026-05-08 02:08 37.08059 -90.43489 22019 ft 195 kts 260°
2026-05-08 02:08 37.07674 -90.45116 22017 ft 195 kts 261°
2026-05-08 02:09 37.07291 -90.46730 22018 ft 194 kts 261°
2026-05-08 02:09 37.06902 -90.48372 22022 ft 194 kts 261°
2026-05-08 02:09 37.06520 -90.49979 22024 ft 194 kts 260°
2026-05-08 02:09 37.06132 -90.51613 22017 ft 194 kts 260°
2026-05-08 02:10 37.05735 -90.53231 22019 ft 195 kts 258°
2026-05-08 02:10 37.05313 -90.54834 22018 ft 195 kts 259°
2026-05-08 02:10 37.04888 -90.56441 22020 ft 195 kts 258°
2026-05-08 02:10 37.04458 -90.58065 22016 ft 195 kts 259°
2026-05-08 02:11 37.04033 -90.59674 22010 ft 195 kts 259°
2026-05-08 02:11 37.03610 -90.61283 22020 ft 194 kts 259°
2026-05-08 02:11 37.03190 -90.62876 22020 ft 194 kts 259°
2026-05-08 02:11 37.02766 -90.64490 22023 ft 194 kts 258°
2026-05-08 02:12 37.02345 -90.66089 22030 ft 194 kts 258°
2026-05-08 02:12 37.01923 -90.67693 22034 ft 195 kts 258°
2026-05-08 02:12 37.01500 -90.69299 22033 ft 196 kts 258°
2026-05-08 02:12 37.01075 -90.70910 22028 ft 196 kts 258°
2026-05-08 02:13 37.00644 -90.72546 22030 ft 196 kts 258°
2026-05-08 02:13 37.00220 -90.74152 22032 ft 197 kts 258°
2026-05-08 02:13 36.99789 -90.75788 22029 ft 197 kts 258°
2026-05-08 02:13 36.99360 -90.77408 22031 ft 198 kts 258°
2026-05-08 02:14 36.98929 -90.79043 22029 ft 198 kts 258°
2026-05-08 02:14 36.98494 -90.80685 22028 ft 198 kts 258°
2026-05-08 02:14 36.98064 -90.82311 22029 ft 199 kts 258°
2026-05-08 02:14 36.97626 -90.83962 22027 ft 198 kts 258°
2026-05-08 02:15 36.97192 -90.85599 22028 ft 199 kts 258°
2026-05-08 02:15 36.96761 -90.87228 22028 ft 199 kts 258°
2026-05-08 02:15 36.96322 -90.88879 22029 ft 199 kts 258°
2026-05-08 02:15 36.95890 -90.90507 22031 ft 199 kts 258°
2026-05-08 02:16 36.95455 -90.92145 22029 ft 199 kts 257°